Flag for Germany Weather past 2 weeks in Hürth, North Rhine-Westphalia, Germany

Now
48 °F

Broken clouds.


Feels Like: 46 °F
Forecast: 35 / 57 °F
Wind: 5 mph from Southwest

Location: Noervenich

Current Time: Mar 6, 2015 at 5:22:12 PM

Latest Report: Mar 6, 2015 at 4:20 PM


Visibility: N/A

Pressure: 30.54 "Hg

Humidity: 58%

Dew point: 34 °F

Location of HürthLocation

Historic Weather in Hürth — Graph

°F

Hürth temperature yesterday

Maximum temperature yesterday: 46 °F (at 3:20 PM)
Minimum temperature yesterday: 36 °F (at 5:20 AM)
Average temperature yesterday: 41 °F

Past Weeks' High & Low Weather Summary

 TemperatureHumidityPressure
High52 °F (Mar 1, 11:20 AM)100% (Feb 21, 9:20 PM)30.66 "Hg (Feb 21, 9:20 PM)
Low30 °F (Feb 22, 8:45 AM)50% (Feb 28, 1:20 PM)29.36 "Hg (Feb 21, 4:20 AM)
Average41 °F77%29.94 "Hg
* Reported Feb 19 3:20 PM — Mar 6 3:20 PM, Hürth, Weather by CustomWeather, © 2015

Note: Actual official high and low records may vary slightly from our data, if they occured in-between our weather recording intervals... More about our weather records

Advertising

Hürth weather history for previous 24 hours

 ConditionsComfort  
Time TempWeatherWind HumidityBarometerVisibility
3:20 PM
Fri, Mar 6
48 °FPartly sunny.5 mph62%30.57 "HgN/A
2:20 PM48 °FPartly sunny.6 mph58%30.57 "HgN/A
1:20 PM48 °FPartly sunny.5 mph62%30.57 "HgN/A
12:20 PM46 °FPartly sunny.7 mph66%30.63 "HgN/A
11:20 AM46 °FPartly sunny.6 mph66%30.63 "HgN/A
10:20 AM43 °FPartly sunny.1 mph76%30.63 "HgN/A
9:20 AM43 °FPartly sunny.3 mph71%30.63 "HgN/A
8:20 AM41 °FPartly sunny.2 mph70%30.63 "HgN/A
7:20 AM37 °FPartly sunny.1 mph87%30.63 "HgN/A
6:20 AM36 °FPassing clouds.No wind87%30.63 "HgN/A
5:20 AM36 °FPassing clouds.2 mph87%30.63 "HgN/A
4:20 AM36 °FPassing clouds.1 mph87%30.63 "HgN/A
3:20 AM34 °FPassing clouds.1 mph93%30.60 "HgN/A
2:20 AM36 °FPassing clouds.2 mph87%30.63 "HgN/A
1:20 AM36 °FPassing clouds.2 mph87%30.63 "HgN/A
12:20 AM37 °FPassing clouds.2 mph81%30.63 "HgN/A
11:20 PM
Thu, Mar 5
37 °FPassing clouds.6 mph81%30.63 "HgN/A
10:20 PM39 °FPassing clouds.5 mph75%30.63 "HgN/A
9:20 PM41 °FPassing clouds.5 mph76%30.63 "HgN/A
8:20 PM41 °FPassing clouds.2 mph70%30.63 "HgN/A
7:20 PM43 °FPassing clouds.3 mph66%30.63 "HgN/A
6:20 PM45 °FPassing clouds.3 mph66%30.63 "HgN/A
5:20 PM46 °FPartly sunny.6 mph62%30.63 "HgN/A
5:00 PM46 °FBroken clouds.6 mph62%30.63 "HgN/A
Weather by CustomWeather, © 2015

See weather overviewHow to use our weather pages